Location: Asheville, NC
(35.6000°N, 82.5500°W)
Time: 00:28:33
(UTC-04:00)

Vanguard 1 - Pass Details

Date: 12 March 2018
Orbit: 650 x 3833 km, 34.3° (Epoch: 24 June)

Event Time Altitude Azimuth Distance (km) Brightness Sun altitude
Rises 14:40:08 0° 279° (W) 7,954 14.8 48.8°
Reaches altitude 10° 14:45:49 10° 279° (W) 6,798 14.6 48.3°
Maximum altitude 15:07:11 76° 198° (SSW) 2,753 13.6 46.2°
Drops below altitude 10° 15:19:14 10° 115° (ESE) 4,130 13.3 44.9°
Sets 15:21:48 0° 113° (ESE) 4,807 13.5 44.5°
